Hourly Weather Folkern

Today, 10 July, Friday

Time Temperature Precipitation Wind Pressure Humidity
00:00 +9°C° 0 mm 6 mps 761 mmHg 89%
01:00 +9°C° 0.1 mm 6 mps 761 mmHg 89%
02:00 +9°C° 0.1 mm 6 mps 761 mmHg 89%
03:00 +9°C° 0.1 mm 7 mps 761 mmHg 88%
04:00 +10°C° 0.1 mm 7 mps 761 mmHg 88%
05:00 +10°C° 0.1 mm 6 mps 761 mmHg 87%
06:00 +10°C° 0 mm 6 mps 761 mmHg 86%
07:00 +10°C° 0.1 mm 6 mps 761 mmHg 85%
08:00 +11°C° 0.1 mm 6 mps 762 mmHg 84%
09:00 +11°C° 0.1 mm 6 mps 762 mmHg 82%
10:00 +13°C° 0.1 mm 6 mps 762 mmHg 80%
11:00 +13°C° 0.1 mm 6 mps 762 mmHg 77%
12:00 +12°C° 0.1 mm 7 mps 762 mmHg 75%
13:00 +12°C° 0 mm 7 mps 762 mmHg 75%
14:00 +12°C° 0 mm 7 mps 763 mmHg 75%
15:00 +12°C° 0 mm 7 mps 763 mmHg 75%
16:00 +12°C° 0 mm 7 mps 763 mmHg 76%
17:00 +12°C° 0 mm 7 mps 763 mmHg 78%
18:00 +11°C° 0 mm 7 mps 764 mmHg 80%
19:00 +11°C° 0 mm 7 mps 764 mmHg 82%
20:00 +11°C° 0 mm 7 mps 764 mmHg 84%
21:00 +10°C° 0 mm 7 mps 765 mmHg 86%
22:00 +10°C° 0.1 mm 7 mps 765 mmHg 86%
23:00 +10°C° 0.1 mm 7 mps 765 mmHg 86%

Tomorrow, 11 July, Saturday

Time Temperature Precipitation Wind Pressure Humidity
00:00 +10°C° 0.1 mm 7 mps 765 mmHg 86%
01:00 +10°C° 0.1 mm 6 mps 765 mmHg 86%
02:00 +10°C° 0.1 mm 6 mps 765 mmHg 85%
03:00 +9°C° 0.1 mm 6 mps 765 mmHg 85%
04:00 +10°C° 0.1 mm 6 mps 765 mmHg 86%
05:00 +10°C° 0.1 mm 6 mps 765 mmHg 86%
06:00 +10°C° 0.1 mm 6 mps 765 mmHg 87%
07:00 +11°C° 0.1 mm 6 mps 765 mmHg 86%
08:00 +11°C° 0.1 mm 6 mps 766 mmHg 84%
09:00 +11°C° 0.1 mm 6 mps 766 mmHg 83%
10:00 +11°C° 0 mm 6 mps 766 mmHg 81%
11:00 +13°C° 0 mm 6 mps 767 mmHg 79%
12:00 +13°C° 0 mm 6 mps 767 mmHg 78%
13:00 +13°C° 0 mm 6 mps 767 mmHg 75%
14:00 +14°C° 0 mm 6 mps 767 mmHg 73%
15:00 +14°C° 0 mm 6 mps 767 mmHg 71%
16:00 +14°C° 0 mm 6 mps 767 mmHg 72%
17:00 +13°C° 0 mm 6 mps 767 mmHg 74%
18:00 +13°C° 0 mm 6 mps 767 mmHg 76%
19:00 +13°C° 0 mm 6 mps 767 mmHg 81%
20:00 +12°C° 0 mm 5 mps 768 mmHg 86%
21:00 +10°C° 0 mm 5 mps 768 mmHg 91%
22:00 +10°C° 0 mm 5 mps 768 mmHg 92%
23:00 +10°C° 0 mm 5 mps 768 mmHg 93%

Day after tomorrow, 12 July, Sunday

Time Temperature Precipitation Wind Pressure Humidity
00:00 +11°C° 0 mm 4 mps 768 mmHg 94%
01:00 +10°C° 0 mm 5 mps 768 mmHg 94%
02:00 +10°C° 0 mm 5 mps 768 mmHg 94%
03:00 +9°C° 0 mm 5 mps 768 mmHg 94%
04:00 +10°C° 0 mm 5 mps 768 mmHg 93%
05:00 +10°C° 0 mm 5 mps 768 mmHg 91%
06:00 +11°C° 0 mm 6 mps 767 mmHg 89%
07:00 +11°C° 0 mm 6 mps 767 mmHg 86%
08:00 +13°C° 0 mm 6 mps 767 mmHg 82%
09:00 +12°C° 0 mm 7 mps 767 mmHg 79%
10:00 +14°C° 0 mm 7 mps 767 mmHg 77%
11:00 +13°C° 0 mm 8 mps 767 mmHg 75%
12:00 +13°C° 0 mm 8 mps 767 mmHg 72%
13:00 +13°C° 0 mm 8 mps 767 mmHg 70%
14:00 +13°C° 0 mm 8 mps 766 mmHg 67%
15:00 +13°C° 0 mm 8 mps 766 mmHg 65%
16:00 +13°C° 0.3 mm 9 mps 765 mmHg 69%
17:00 +13°C° 0.3 mm 9 mps 765 mmHg 72%
18:00 +13°C° 0.3 mm 9 mps 764 mmHg 76%
19:00 +12°C° 1 mm 10 mps 764 mmHg 82%
20:00 +12°C° 1 mm 11 mps 763 mmHg 88%
21:00 +11°C° 1 mm 11 mps 763 mmHg 94%
22:00 +11°C° 0.4 mm 11 mps 763 mmHg 94%
23:00 +12°C° 0.4 mm 10 mps 763 mmHg 95%

13 July, Monday

Time Temperature Precipitation Wind Pressure Humidity
00:00 +12°C° 0.4 mm 9 mps 762 mmHg 96%
01:00 +12°C° 0.1 mm 9 mps 762 mmHg 95%
02:00 +12°C° 0.1 mm 8 mps 762 mmHg 95%
03:00 +12°C° 0.1 mm 7 mps 761 mmHg 95%
04:00 +12°C° 0.3 mm 8 mps 761 mmHg 95%
05:00 +12°C° 0.3 mm 9 mps 761 mmHg 95%
06:00 +12°C° 0.3 mm 10 mps 761 mmHg 95%
07:00 +12°C° 0.2 mm 9 mps 761 mmHg 95%
08:00 +12°C° 0.2 mm 9 mps 761 mmHg 96%
09:00 +12°C° 0.2 mm 8 mps 760 mmHg 96%
10:00 +12°C° 0.1 mm 8 mps 760 mmHg 96%
11:00 +12°C° 0.1 mm 8 mps 760 mmHg 95%
12:00 +12°C° 0.1 mm 7 mps 760 mmHg 95%
13:00 +14°C° 0 mm 7 mps 760 mmHg 95%
14:00 +14°C° 0 mm 7 mps 760 mmHg 95%
15:00 +14°C° 0 mm 6 mps 759 mmHg 94%
16:00 +14°C° 0.1 mm 6 mps 759 mmHg 95%
17:00 +14°C° 0.1 mm 6 mps 759 mmHg 95%
18:00 +13°C° 0.1 mm 6 mps 759 mmHg 95%
19:00 +13°C° 0.1 mm 5 mps 760 mmHg 95%
20:00 +13°C° 0.1 mm 5 mps 760 mmHg 96%
21:00 +12°C° 0.1 mm 5 mps 760 mmHg 96%
22:00 +12°C° 0 mm 5 mps 760 mmHg 96%
23:00 +10°C° 0 mm 5 mps 760 mmHg 96%

14 July, Tuesday

Time Temperature Precipitation Wind Pressure Humidity
00:00 +10°C° 0 mm 5 mps 760 mmHg 96%
01:00 +10°C° 0 mm 5 mps 760 mmHg 94%
02:00 +11°C° 0 mm 4 mps 760 mmHg 93%
03:00 +12°C° 0 mm 4 mps 759 mmHg 91%
04:00 +12°C° 0 mm 4 mps 759 mmHg 90%
05:00 +12°C° 0 mm 3 mps 759 mmHg 89%
06:00 +12°C° 0 mm 3 mps 759 mmHg 88%
07:00 +12°C° 0.1 mm 3 mps 759 mmHg 87%
08:00 +13°C° 0.1 mm 3 mps 759 mmHg 86%
09:00 +13°C° 0.1 mm 3 mps 759 mmHg 86%
10:00 +13°C° 0.1 mm 4 mps 759 mmHg 85%
11:00 +14°C° 0.1 mm 5 mps 758 mmHg 84%
12:00 +14°C° 0.1 mm 6 mps 758 mmHg 83%
13:00 +13°C° 0.2 mm 6 mps 758 mmHg 85%
14:00 +13°C° 0.2 mm 5 mps 757 mmHg 87%
15:00 +12°C° 0.2 mm 5 mps 757 mmHg 89%
16:00 +12°C° 0.3 mm 5 mps 757 mmHg 91%
17:00 +12°C° 0.3 mm 5 mps 757 mmHg 93%
18:00 +11°C° 0.3 mm 6 mps 756 mmHg 95%
19:00 +12°C° 0.1 mm 5 mps 756 mmHg 96%
20:00 +12°C° 0.1 mm 5 mps 756 mmHg 96%
21:00 +12°C° 0.1 mm 5 mps 755 mmHg 96%
22:00 +12°C° 0.1 mm 5 mps 755 mmHg 96%
23:00 +12°C° 0.1 mm 5 mps 755 mmHg 96%

15 July, Wednesday

Time Temperature Precipitation Wind Pressure Humidity
00:00 +12°C° 0.1 mm 4 mps 755 mmHg 96%
01:00 +12°C° 0.1 mm 4 mps 755 mmHg 96%
02:00 +12°C° 0.1 mm 4 mps 755 mmHg 95%
03:00 +12°C° 0.1 mm 3 mps 755 mmHg 95%
04:00 +12°C° 0 mm 3 mps 755 mmHg 95%
05:00 +13°C° 0 mm 2 mps 755 mmHg 95%
06:00 +13°C° 0 mm 2 mps 756 mmHg 95%
07:00 +14°C° 0 mm 2 mps 756 mmHg 94%
08:00 +14°C° 0 mm 2 mps 756 mmHg 94%
09:00 +14°C° 0 mm 1 mps 756 mmHg 93%
10:00 +15°C° 0 mm 2 mps 756 mmHg 92%
11:00 +15°C° 0 mm 2 mps 757 mmHg 90%
12:00 +16°C° 0 mm 2 mps 757 mmHg 88%
13:00 +16°C° 0 mm 3 mps 757 mmHg 87%
14:00 +15°C° 0 mm 4 mps 757 mmHg 86%
15:00 +15°C° 0 mm 4 mps 757 mmHg 84%
16:00 +15°C° 0 mm 4 mps 758 mmHg 84%
17:00 +15°C° 0 mm 4 mps 758 mmHg 83%
18:00 +15°C° 0 mm 4 mps 758 mmHg 83%
19:00 +15°C° 0 mm 5 mps 758 mmHg 87%
20:00 +14°C° 0 mm 5 mps 759 mmHg 91%
21:00 +13°C° 0 mm 5 mps 759 mmHg 96%
22:00 +13°C° 0 mm 6 mps 759 mmHg 95%
23:00 +13°C° 0 mm 6 mps 759 mmHg 95%
Show more